Location: Charlotte
(35.2270°N, 80.8430°W)
Time: 09:21:15
(UTC-05:00)

Daily predictions for brighter satellites

Satellite Brightness Start Highest point End
(mag) Time Altitude Azimuth Time Altitude Azimuth Time Altitude Azimuth
Cosmos 2278 Rocket 2.2 17:27:25 10° SSW 17:33:01 72° ESE 17:38:40 10° NNE
PAYLOAD A 3.9 17:28:29 10° SSE 17:33:14 72° ENE 17:38:12 10° N
Cosmos 1544 Rocket 3.6 17:30:44 10° N 17:35:10 60° E 17:39:34 10° SSE
Cosmos 1975 Rocket 4.3 17:32:04 10° SSW 17:36:11 44° W 17:40:20 10° N
USA 116 4.5 17:32:13 10° NNE 17:37:35 72° ESE 17:42:35 10° S
SMAP 3.3 17:33:23 10° SSE 17:37:50 48° ENE 17:42:19 10° N
COSMO-SKYMED 1 3.9 17:36:05 10° NE 17:39:26 21° E 17:42:46 10° SE
USA 234 3.7 17:36:54 10° NE 17:43:20 60° NW 17:49:42 10° WSW
Genesis I 4.1 17:48:33 10° N 17:51:57 28° NE 17:55:20 10° ESE
Cosmos 1536 Rocket 3.6 17:48:20 10° S 17:52:46 78° E 17:57:15 10° N
Nadezhda 3 Rocket 4.4 17:48:25 10° SSE 17:54:09 42° E 17:59:59 10° NNE
Cosmos 864 Rocket 4.5 17:48:14 10° N 17:54:32 74° E 18:00:50 10° SSE
NOSS 3-3 (A) 4.3 17:51:17 10° SW 17:57:23 69° WNW 18:03:56 10° NNE
NOSS 3-3 (C) 4.3 17:51:23 10° SW 17:57:29 70° WNW 18:04:02 10° NNE
Cosmos 1833 Rocket 3.7 17:54:24 10° N 17:58:48 23° ENE 18:03:11 10° ESE
Cosmos 921 Rocket 3.6 17:55:30 10° SSE 17:59:20 34° E 18:03:14 10° NE
EP 1 4.1 17:57:43 10° SSW 18:00:27 88° SE 18:02:42 13° NNE
Cosmos 1238 Rocket 3.4 17:58:44 10° SSW 18:01:33 42° W 18:04:27 10° N
YAOGAN 1 2.5 17:57:14 10° SSE 18:01:33 83° ENE 18:05:54 10° N
Cosmos 2082 Rocket 3.0 17:56:47 10° N 18:01:39 28° ENE 18:06:29 10° ESE
SPOT 3 Rocket 3.6 17:57:00 10° SSE 18:02:11 88° W 18:07:23 10° NNW
MSX 3.9 17:56:49 10° SSE 18:02:27 59° ENE 18:08:05 10° N
CZ-4 R/B 2.1 17:58:58 10° S 18:03:05 61° WSW 18:07:13 10° NNW
Cosmos 1975 2.7 18:03:02 10° N 18:07:04 70° E 18:11:05 10° SSE
Cosmos 1743 3.8 18:04:16 10° NNE 18:07:26 24° ENE 18:10:35 10° SE
ATLAS 2AS CENTAUR R/B 3.2 18:01:17 10° NNW 18:09:18 78° WSW 18:16:40 10° SSE
Cosmos 494 Rocket 4.2 18:04:07 10° NNW 18:09:22 77° WSW 18:14:36 10° S
Cosmos 1484 Rocket 3.1 18:06:34 10° SE 18:10:05 39° ENE 18:13:34 10° N
CZ-2C R/B 2.8 18:05:47 10° S 18:10:43 72° WSW 18:15:51 10° NNW
COSMOS 2487 2.8 18:08:00 10° N 18:11:26 41° ENE 18:14:50 10° SE
MONITOR-E 4.3 18:08:55 10° SSE 18:12:01 53° ENE 18:15:09 10° N
Cosmos 1500 3.1 18:08:24 10° N 18:12:12 62° E 18:16:01 10° SSE
Meteor 1-12 Rocket 4.4 18:07:50 10° N 18:13:40 83° W 18:19:35 10° S
Meteor 1-28 Rocket 4.0 18:15:53 18° NE 18:17:58 31° E 18:21:21 10° SSE
COSMOS 2441 4.3 18:13:18 10° SSE 18:18:08 70° ENE 18:23:00 10° N
Meteor 1-13 Rocket 4.2 18:12:44 10° S 18:18:17 64° E 18:24:01 10° NNE
Tiangong 1 2.0 18:15:44 10° W 18:18:33 35° NNW 18:19:54 23° NNE
ATLAS 3B CENTAUR R/B 4.4 18:00:02 10° WSW 18:24:02 63° S 18:31:14 15° ESE
Cosmos 1455 Rocket 4.3 18:20:02 10° NNW 18:24:14 44° W 18:28:26 10° SSW
IDEFIX/ARIANE 42P 3.5 18:22:06 10° S 18:27:08 51° W 18:32:12 10° NNW
SKYMED 2 3.5 18:23:18 10° NNE 18:27:39 81° E 18:32:00 10° S
FALCON 9 R/B 3.9 17:59:40 10° WSW 18:30:07 83° S 18:35:31 23° E
Delta 2 Rocket 3.1 18:27:48 10° W 18:31:32 87° S 18:33:18 33° E
Meteor 2-4 Rocket 3.8 18:29:33 10° SSE 18:34:42 48° E 18:38:55 15° NNE
Okean 1-7 Rocket 3.5 18:30:20 10° S 18:34:51 81° E 18:39:21 10° N
Cosmos 2369 Rocket 4.2 18:36:12 10° SE 18:36:42 11° SE 18:36:42 11° SE
Cosmos 1934 Rocket 4.1 18:43:09 10° N 18:49:11 51° E 18:55:16 10° SSE
NOSS 2-1 (D) 4.0 18:47:56 10° SW 18:51:37 49° NW 18:53:30 27° N
NOSS 2-1 (C) 4.0 18:48:35 10° SW 18:52:19 51° NW 18:54:09 28° N
Cosmos 1535 Rocket 4.4 18:46:37 10° N 18:52:54 71° E 18:59:03 10° SSE
Chunghua 1 4.4 18:56:32 10° W 19:00:25 86° S 19:00:25 86° S
Meteor 2-8 Rocket 4.3 18:55:47 10° S 19:01:48 70° E 19:06:34 17° NNE
Cosmos 2239 Rocket 4.4 19:01:14 10° N 19:07:26 85° W 19:13:34 10° S
BREEZE M DEB (TANK) 3.7 19:00:55 10° WSW 19:07:48 33° NW 19:08:45 29° N
Timation 2 Rocket 4.5 19:05:20 10° NNW 19:12:09 69° WSW 19:18:57 10° S
NOAA 12 4.0 19:08:39 10° SSE 19:13:56 85° WSW 19:19:14 10° NNW
Cosmos 1821 Rocket 4.1 19:12:08 10° N 19:18:13 73° W 19:24:16 10° S
Okean 2 4.2 19:20:33 10° SSW 19:23:37 47° SSW 19:23:37 47° SSW
CZ-3B DEB 4.5 19:23:32 10° WNW 19:28:18 24° N 19:31:38 20° NNE
Cosmos 1605 Rocket 3.8 19:22:32 10° N 19:28:50 75° E 19:35:00 10° SSE
METEOR-M 4.3 19:24:22 10° S 19:29:39 72° WSW 19:35:00 10° NNW
Cosmos 2056 Rocket 4.1 19:25:49 10° SSW 19:31:06 56° WNW 19:32:41 41° NNW
Cosmos 1833 Rocket 3.7 19:37:34 10° NW 19:42:54 44° WSW 19:48:10 10° S
NOSS 3-4 (A) 3.7 19:38:03 10° NNW 19:45:08 79° NE 19:45:08 79° NE
NOSS 3-4 (C) 3.7 19:38:09 10° NNW 19:45:09 78° NE 19:45:09 78° NE
Cosmos 2082 Rocket 3.7 19:40:37 10° NW 19:45:42 35° WSW 19:50:47 10° SSW
GEOS 3 Rocket 4.2 19:47:42 53° WNW 19:47:42 53° WNW 19:51:48 10° NW
Cosmos 1727 Rocket 4.3 19:54:38 10° SSW 20:00:29 61° W 20:00:29 61° W
Cosmos 2369 Rocket 4.3 20:16:55 10° SSW 20:18:34 20° SW 20:18:34 20° SW
